Back to Top

Language: 

My Weather Underground Personal Weather Station Historical Data with Graphs...

Delerius Weather Station Historical Data
Daily Summary for September 8, 2017 Units:  English    Metric   Both
« Previous Day
Next Day »
Daily Weekly Monthly Yearly Custom
  High: Low: Average:
Temperature: 64.9 °F 52.9 °F 57.6 °F
Dew Point: 55.1 °F 49.2 °F 52.1 °F
Humidity: 93 % 60 % 82 %
Wind Speed: 15.0 mph 0.0 mph 7.1 mph
Wind Gust: 25.0 mph - -
Wind:- - West
Pressure: 29.56 in 29.34 in -
Precipitation: 0.17 in    
Historical Graphs
 
 
Tabular Data for September 8, 2017
Time Temperature Dew Point Pressure Wind Wind Speed Wind Gust Humidity Rainfall Rate (Hourly) solar Conditions
00:01 59.7 °F 54.9 °F 29.56 in WSW 6.0 mph 12.0 mph 84 % 0.00 in 0 W/m2
00:06 59.7 °F 54.9 °F 29.56 in SW 5.0 mph 11.0 mph 84 % 0.00 in 0 W/m2
00:11 59.7 °F 54.9 °F 29.56 in SW 6.0 mph 11.0 mph 84 % 0.00 in 0 W/m2
00:16 59.7 °F 54.9 °F 29.56 in SW 6.0 mph 11.0 mph 84 % 0.00 in 0 W/m2
00:21 59.7 °F 54.9 °F 29.55 in SW 6.0 mph 11.0 mph 84 % 0.00 in 0 W/m2
00:26 59.7 °F 54.9 °F 29.55 in SW 7.0 mph 14.0 mph 84 % 0.00 in 0 W/m2
00:31 59.7 °F 54.9 °F 29.55 in SW 8.0 mph 14.0 mph 84 % 0.00 in 0 W/m2
00:36 59.7 °F 54.9 °F 29.55 in SW 7.0 mph 13.0 mph 84 % 0.00 in 0 W/m2
00:41 59.7 °F 54.9 °F 29.54 in SW 7.0 mph 13.0 mph 84 % 0.00 in 0 W/m2
00:46 59.7 °F 54.9 °F 29.54 in WSW 8.0 mph 13.0 mph 84 % 0.00 in 0 W/m2
00:52 59.9 °F 55.1 °F 29.54 in WSW 10.0 mph 20.0 mph 84 % 0.00 in 0 W/m2
00:53 59.7 °F 54.9 °F 29.54 in WSW 10.0 mph 20.0 mph 84 % 0.00 in 0 W/m2
00:59 59.9 °F 54.7 °F 29.53 in WSW 10.0 mph 20.0 mph 83 % 0.00 in 0 W/m2
01:04 59.9 °F 54.7 °F 29.53 in WSW 9.0 mph 20.0 mph 83 % 0.00 in 0 W/m2
01:09 59.7 °F 54.5 °F 29.53 in WSW 10.0 mph 15.0 mph 83 % 0.00 in 0 W/m2
01:14 59.7 °F 54.5 °F 29.53 in WSW 10.0 mph 16.0 mph 83 % 0.00 in 0 W/m2
01:19 59.7 °F 54.9 °F 29.52 in WSW 9.0 mph 16.0 mph 84 % 0.00 in 0 W/m2
01:24 59.5 °F 54.7 °F 29.52 in WSW 9.0 mph 18.0 mph 84 % 0.00 in 0 W/m2
01:29 59.5 °F 54.7 °F 29.52 in WSW 10.0 mph 18.0 mph 84 % 0.00 in 0 W/m2
01:34 59.4 °F 54.8 °F 29.52 in WSW 9.0 mph 19.0 mph 85 % 0.00 in 0 W/m2
01:39 59.4 °F 54.8 °F 29.52 in WSW 10.0 mph 19.0 mph 85 % 0.00 in 0 W/m2
01:44 59.4 °F 54.8 °F 29.52 in WSW 10.0 mph 18.0 mph 85 % 0.00 in 0 W/m2
01:49 59.4 °F 54.8 °F 29.52 in WSW 9.0 mph 18.0 mph 85 % 0.00 in 0 W/m2
01:54 59.4 °F 54.8 °F 29.52 in WSW 9.0 mph 16.0 mph 85 % 0.00 in 0 W/m2
01:59 59.4 °F 54.8 °F 29.52 in WSW 10.0 mph 18.0 mph 85 % 0.00 in 0 W/m2
02:04 59.4 °F 54.8 °F 29.51 in WSW 10.0 mph 18.0 mph 85 % 0.00 in 0 W/m2
02:09 59.4 °F 54.8 °F 29.52 in WSW 9.0 mph 19.0 mph 85 % 0.00 in 0 W/m2
02:14 59.4 °F 54.5 °F 29.51 in West 10.0 mph 19.0 mph 84 % 0.00 in 0 W/m2
02:19 59.2 °F 54.3 °F 29.51 in West 9.0 mph 19.0 mph 84 % 0.00 in 0 W/m2
02:24 59.2 °F 54.7 °F 29.51 in West 9.0 mph 16.0 mph 85 % 0.00 in 0 W/m2
02:29 59.0 °F 54.8 °F 29.51 in West 11.0 mph 22.0 mph 86 % 0.00 in 0 W/m2
02:34 58.8 °F 54.6 °F 29.51 in West 12.0 mph 22.0 mph 86 % 0.00 in 0 W/m2
02:39 58.5 °F 54.6 °F 29.51 in West 10.0 mph 20.0 mph 87 % 0.01 in 0 W/m2
02:44 58.3 °F 54.7 °F 29.50 in West 11.0 mph 22.0 mph 88 % 0.02 in 0 W/m2
02:49 57.9 °F 54.7 °F 29.50 in West 12.0 mph 22.0 mph 89 % 0.02 in 0 W/m2
02:54 57.6 °F 54.3 °F 29.50 in West 11.0 mph 21.0 mph 89 % 0.02 in 0 W/m2
02:59 57.4 °F 54.5 °F 29.50 in West 10.0 mph 20.0 mph 90 % 0.02 in 0 W/m2
03:04 57.2 °F 54.6 °F 29.50 in West 11.0 mph 20.0 mph 91 % 0.03 in 0 W/m2
03:09 57.0 °F 54.4 °F 29.50 in West 11.0 mph 20.0 mph 91 % 0.05 in 0 W/m2
03:14 56.8 °F 54.5 °F 29.49 in WSW 9.0 mph 20.0 mph 92 % 0.06 in 0 W/m2
03:19 56.8 °F 54.5 °F 29.49 in WSW 7.0 mph 11.0 mph 92 % 0.06 in 0 W/m2
03:24 56.7 °F 54.4 °F 29.49 in WSW 6.0 mph 11.0 mph 92 % 0.06 in 0 W/m2
03:29 56.5 °F 54.2 °F 29.49 in West 4.0 mph 9.0 mph 92 % 0.06 in 0 W/m2
03:34 56.5 °F 54.2 °F 29.49 in West 4.0 mph 9.0 mph 92 % 0.06 in 0 W/m2
03:39 56.3 °F 54.0 °F 29.49 in West 5.0 mph 13.0 mph 92 % 0.05 in 0 W/m2
03:44 56.1 °F 53.8 °F 29.49 in West 6.0 mph 13.0 mph 92 % 0.04 in 0 W/m2
03:49 56.1 °F 53.8 °F 29.49 in West 7.0 mph 13.0 mph 92 % 0.03 in 0 W/m2
03:54 55.9 °F 53.6 °F 29.48 in West 6.0 mph 13.0 mph 92 % 0.03 in 0 W/m2
03:59 55.9 °F 53.6 °F 29.48 in West 5.0 mph 13.0 mph 92 % 0.02 in 0 W/m2
04:04 55.8 °F 53.5 °F 29.48 in West 5.0 mph 9.0 mph 92 % 0.02 in 0 W/m2
04:09 55.8 °F 53.5 °F 29.48 in West 5.0 mph 8.0 mph 92 % 0.01 in 0 W/m2
04:14 55.8 °F 53.5 °F 29.48 in West 3.0 mph 8.0 mph 92 % 0.00 in 0 W/m2
04:19 55.6 °F 53.3 °F 29.48 in West 2.0 mph 8.0 mph 92 % 0.00 in 0 W/m2
04:22 55.6 °F 53.3 °F 29.48 in West 3.0 mph 10.0 mph 92 % 0.00 in 0 W/m2
04:27 55.6 °F 53.3 °F 29.48 in West 5.0 mph 13.0 mph 92 % 0.00 in 0 W/m2
04:32 55.6 °F 53.3 °F 29.48 in West 6.0 mph 13.0 mph 92 % 0.00 in 0 W/m2
04:36 55.6 °F 53.3 °F 29.47 in West 5.0 mph 9.0 mph 92 % 0.00 in 0 W/m2
04:41 55.4 °F 53.1 °F 29.47 in West 6.0 mph 9.0 mph 92 % 0.00 in 0 W/m2
04:46 55.4 °F 53.1 °F 29.47 in West 6.0 mph 9.0 mph 92 % 0.00 in 0 W/m2
04:56 55.4 °F 53.1 °F 29.47 in West 5.0 mph 11.0 mph 92 % 0.00 in 0 W/m2
05:01 55.6 °F 53.3 °F 29.47 in WSW 5.0 mph 10.0 mph 92 % 0.00 in 0 W/m2
05:06 55.6 °F 53.3 °F 29.47 in West 5.0 mph 9.0 mph 92 % 0.00 in 0 W/m2
05:11 55.6 °F 53.3 °F 29.47 in West 4.0 mph 9.0 mph 92 % 0.00 in 0 W/m2
05:16 55.6 °F 53.6 °F 29.47 in WNW 4.0 mph 9.0 mph 93 % 0.00 in 0 W/m2
05:21 55.6 °F 53.6 °F 29.47 in West 3.0 mph 9.0 mph 93 % 0.00 in 0 W/m2
05:26 55.6 °F 53.6 °F 29.47 in WSW 2.0 mph 7.0 mph 93 % 0.00 in 0 W/m2
05:31 55.4 °F 53.4 °F 29.46 in WSW 3.0 mph 8.0 mph 93 % 0.00 in 0 W/m2
05:36 55.4 °F 53.4 °F 29.46 in WSW 3.0 mph 8.0 mph 93 % 0.00 in 0 W/m2
05:41 55.2 °F 53.2 °F 29.46 in WSW 3.0 mph 7.0 mph 93 % 0.00 in 0 W/m2
05:46 55.2 °F 53.2 °F 29.46 in WSW 3.0 mph 7.0 mph 93 % 0.00 in 0 W/m2
05:51 55.2 °F 53.2 °F 29.46 in WSW 3.0 mph 7.0 mph 93 % 0.00 in 0 W/m2
05:56 55.2 °F 53.2 °F 29.46 in WSW 3.0 mph 6.0 mph 93 % 0.00 in 0 W/m2
06:01 55.2 °F 53.2 °F 29.45 in WSW 1.0 mph 6.0 mph 93 % 0.00 in 0 W/m2
06:06 55.0 °F 53.1 °F 29.45 in WSW 1.0 mph 6.0 mph 93 % 0.00 in 0 W/m2
06:11 55.0 °F 53.1 °F 29.45 in WSW 1.0 mph 6.0 mph 93 % 0.00 in 0 W/m2
06:16 55.0 °F 53.1 °F 29.45 in SW 1.0 mph 5.0 mph 93 % 0.00 in 0 W/m2
06:21 55.0 °F 53.1 °F 29.45 in SW 1.0 mph 5.0 mph 93 % 0.00 in 0 W/m2
06:26 55.0 °F 53.1 °F 29.45 in SW 2.0 mph 8.0 mph 93 % 0.00 in 0 W/m2
06:32 55.0 °F 53.1 °F 29.45 in SSW 2.0 mph 8.0 mph 93 % 0.00 in 0 W/m2
06:36 54.9 °F 52.9 °F 29.45 in SSW 1.0 mph 6.0 mph 93 % 0.00 in 0 W/m2
06:41 54.9 °F 52.6 °F 29.45 in SSW 1.0 mph 7.0 mph 92 % 0.00 in 5 W/m2
06:46 54.9 °F 52.6 °F 29.45 in SW 1.0 mph 7.0 mph 92 % 0.00 in 5 W/m2
06:52 54.9 °F 52.6 °F 29.45 in SSE 1.0 mph 5.0 mph 92 % 0.00 in 7 W/m2
06:57 54.9 °F 52.6 °F 29.45 in SE 1.0 mph 5.0 mph 92 % 0.00 in 9 W/m2
07:02 55.0 °F 52.8 °F 29.45 in SE 1.0 mph 4.0 mph 92 % 0.00 in 11 W/m2
07:07 55.0 °F 52.8 °F 29.45 in Calm   3.0 mph 92 % 0.00 in 11 W/m2
07:12 55.0 °F 52.8 °F 29.45 in Calm     92 % 0.00 in 9 W/m2
07:17 55.0 °F 52.8 °F 29.45 in SE 1.0 mph 5.0 mph 92 % 0.00 in 7 W/m2
07:22 55.0 °F 52.8 °F 29.45 in SSE 2.0 mph 6.0 mph 92 % 0.00 in 12 W/m2
07:27 55.0 °F 52.8 °F 29.45 in SSW 2.0 mph 7.0 mph 92 % 0.00 in 9 W/m2
07:32 55.0 °F 52.8 °F 29.45 in SW 2.0 mph 7.0 mph 92 % 0.00 in 11 W/m2
07:37 55.0 °F 52.8 °F 29.45 in SW 2.0 mph 5.0 mph 92 % 0.00 in 16 W/m2
07:42 55.0 °F 52.8 °F 29.44 in SW 2.0 mph 5.0 mph 92 % 0.00 in 21 W/m2
07:53 55.0 °F 52.8 °F 29.45 in West 8.0 mph 16.0 mph 92 % 0.01 in 11 W/m2
07:58 54.7 °F 52.1 °F 29.45 in WNW 11.0 mph 20.0 mph 91 % 0.02 in 12 W/m2
08:03 54.1 °F 51.6 °F 29.45 in West 10.0 mph 20.0 mph 91 % 0.04 in 21 W/m2
08:08 53.8 °F 51.2 °F 29.44 in West 9.0 mph 16.0 mph 91 % 0.05 in 40 W/m2
08:13 53.2 °F 50.7 °F 29.44 in West 9.0 mph 16.0 mph 91 % 0.06 in 49 W/m2
08:18 53.1 °F 50.8 °F 29.44 in West 7.0 mph 13.0 mph 92 % 0.06 in 46 W/m2
08:23 53.1 °F 50.8 °F 29.44 in West 5.0 mph 10.0 mph 92 % 0.06 in 46 W/m2
08:28 52.9 °F 50.6 °F 29.44 in West 4.0 mph 8.0 mph 92 % 0.06 in 47 W/m2
08:33 52.9 °F 50.6 °F 29.45 in WSW 4.0 mph 8.0 mph 92 % 0.06 in 53 W/m2
08:37 52.9 °F 50.9 °F 29.44 in WSW 4.0 mph 9.0 mph 93 % 0.06 in 65 W/m2
08:42 52.9 °F 50.9 °F 29.44 in West 5.0 mph 9.0 mph 93 % 0.06 in 81 W/m2
08:47 53.1 °F 51.1 °F 29.44 in West 4.0 mph 8.0 mph 93 % 0.06 in 54 W/m2
08:52 53.2 °F 51.3 °F 29.44 in WSW 4.0 mph 9.0 mph 93 % 0.06 in 51 W/m2
08:57 53.2 °F 51.3 °F 29.43 in WSW 4.0 mph 9.0 mph 93 % 0.04 in 49 W/m2
09:02 53.4 °F 51.4 °F 29.43 in WSW 4.0 mph 9.0 mph 93 % 0.02 in 54 W/m2
09:07 53.4 °F 51.4 °F 29.43 in WSW 5.0 mph 9.0 mph 93 % 0.02 in 46 W/m2
09:12 53.4 °F 51.2 °F 29.43 in WSW 6.0 mph 12.0 mph 92 % 0.01 in 49 W/m2
09:17 53.2 °F 51.0 °F 29.43 in WSW 6.0 mph 12.0 mph 92 % 0.01 in 44 W/m2
09:22 53.2 °F 50.7 °F 29.43 in WSW 6.0 mph 10.0 mph 91 % 0.01 in 69 W/m2
09:27 53.2 °F 50.7 °F 29.43 in WSW 6.0 mph 10.0 mph 91 % 0.02 in 72 W/m2
09:32 53.1 °F 50.5 °F 29.43 in West 6.0 mph 13.0 mph 91 % 0.02 in 95 W/m2
09:37 53.1 °F 50.2 °F 29.43 in West 6.0 mph 13.0 mph 90 % 0.02 in 107 W/m2
09:42 53.2 °F 50.7 °F 29.43 in West 5.0 mph 11.0 mph 91 % 0.02 in 107 W/m2
09:47 53.2 °F 50.4 °F 29.44 in West 5.0 mph 10.0 mph 90 % 0.02 in 134 W/m2
09:52 53.4 °F 50.9 °F 29.44 in West 5.0 mph 10.0 mph 91 % 0.01 in 186 W/m2
09:57 53.8 °F 51.2 °F 29.43 in West 4.0 mph 9.0 mph 91 % 0.01 in 510 W/m2
10:02 54.1 °F 51.6 °F 29.43 in WSW 4.0 mph 8.0 mph 91 % 0.01 in 545 W/m2
10:07 55.0 °F 52.2 °F 29.43 in WSW 5.0 mph 11.0 mph 90 % 0.01 in 585 W/m2
10:12 55.8 °F 52.9 °F 29.43 in WSW 5.0 mph 11.0 mph 90 % 0.01 in 650 W/m2
10:17 56.1 °F 52.9 °F 29.44 in SW 3.0 mph 9.0 mph 89 % 0.01 in 417 W/m2
10:22 56.7 °F 53.5 °F 29.44 in WSW 3.0 mph 9.0 mph 89 % 0.01 in 475 W/m2
10:27 57.2 °F 54.0 °F 29.43 in West 5.0 mph 11.0 mph 89 % 0.00 in 591 W/m2
10:32 57.6 °F 53.7 °F 29.43 in West 8.0 mph 20.0 mph 87 % 0.00 in 582 W/m2
10:37 57.7 °F 53.3 °F 29.43 in West 10.0 mph 20.0 mph 85 % 0.00 in 621 W/m2
10:42 58.1 °F 53.3 °F 29.43 in WSW 10.0 mph 19.0 mph 84 % 0.00 in 615 W/m2
10:48 58.3 °F 53.5 °F 29.43 in WSW 11.0 mph 19.0 mph 84 % 0.00 in 700 W/m2
10:53 58.6 °F 53.5 °F 29.43 in WSW 11.0 mph 16.0 mph 83 % 0.00 in 768 W/m2
10:58 59.2 °F 54.0 °F 29.43 in WSW 10.0 mph 16.0 mph 83 % 0.00 in 441 W/m2
11:03 59.5 °F 54.4 °F 29.42 in West 9.0 mph 16.0 mph 83 % 0.00 in 575 W/m2
11:08 59.9 °F 54.1 °F 29.42 in West 8.0 mph 13.0 mph 81 % 0.00 in 591 W/m2
11:13 59.9 °F 53.4 °F 29.42 in WSW 9.0 mph 14.0 mph 79 % 0.00 in 309 W/m2
11:18 59.7 °F 53.5 °F 29.42 in WSW 9.0 mph 14.0 mph 80 % 0.00 in 236 W/m2
11:23 59.7 °F 53.2 °F 29.42 in West 9.0 mph 16.0 mph 79 % 0.00 in 135 W/m2
11:28 59.5 °F 53.4 °F 29.42 in West 10.0 mph 19.0 mph 80 % 0.00 in 116 W/m2
11:33 58.6 °F 53.2 °F 29.42 in WNW 10.0 mph 19.0 mph 82 % 0.00 in 90 W/m2
11:38 57.6 °F 52.4 °F 29.42 in WNW 10.0 mph 21.0 mph 83 % 0.01 in 63 W/m2
11:43 56.8 °F 52.4 °F 29.42 in WNW 9.0 mph 21.0 mph 85 % 0.02 in 49 W/m2
11:48 55.9 °F 51.8 °F 29.42 in WNW 7.0 mph 16.0 mph 86 % 0.04 in 125 W/m2
11:53 55.4 °F 51.9 °F 29.41 in WNW 7.0 mph 16.0 mph 88 % 0.04 in 218 W/m2
11:58 55.2 °F 52.0 °F 29.41 in West 7.0 mph 13.0 mph 89 % 0.04 in 183 W/m2
12:03 55.8 °F 53.5 °F 29.41 in West 6.0 mph 10.0 mph 92 % 0.04 in 661 W/m2
12:08 56.3 °F 54.0 °F 29.41 in West 5.0 mph 11.0 mph 92 % 0.04 in 687 W/m2
12:13 56.7 °F 53.8 °F 29.41 in West 6.0 mph 15.0 mph 90 % 0.04 in 250 W/m2
12:18 57.0 °F 53.5 °F 29.41 in West 7.0 mph 15.0 mph 88 % 0.04 in 294 W/m2
12:23 57.2 °F 53.4 °F 29.41 in West 8.0 mph 13.0 mph 87 % 0.04 in 248 W/m2
12:28 57.4 °F 53.2 °F 29.41 in WSW 8.0 mph 14.0 mph 86 % 0.04 in 506 W/m2
12:33 57.9 °F 53.8 °F 29.40 in West 8.0 mph 14.0 mph 86 % 0.04 in 664 W/m2
12:38 58.6 °F 54.1 °F 29.40 in West 7.0 mph 14.0 mph 85 % 0.03 in 698 W/m2
12:43 59.5 °F 54.0 °F 29.40 in West 8.0 mph 14.0 mph 82 % 0.01 in 738 W/m2
12:48 60.3 °F 54.7 °F 29.39 in West 8.0 mph 14.0 mph 82 % 0.00 in 791 W/m2
12:53 61.0 °F 54.4 °F 29.39 in West 8.0 mph 14.0 mph 79 % 0.00 in 879 W/m2
12:58 61.5 °F 54.2 °F 29.39 in WNW 8.0 mph 14.0 mph 77 % 0.00 in 838 W/m2
13:03 62.2 °F 54.6 °F 29.39 in WNW 9.0 mph 16.0 mph 76 % 0.00 in 763 W/m2
13:08 62.2 °F 53.1 °F 29.39 in WNW 10.0 mph 16.0 mph 72 % 0.00 in 812 W/m2
13:13 62.4 °F 53.3 °F 29.39 in WNW 10.0 mph 15.0 mph 72 % 0.00 in 798 W/m2
13:18 62.6 °F 53.1 °F 29.39 in West 11.0 mph 19.0 mph 71 % 0.00 in 846 W/m2
13:23 62.8 °F 52.8 °F 29.39 in West 11.0 mph 19.0 mph 70 % 0.00 in 359 W/m2
13:29 62.2 °F 51.9 °F 29.39 in West 11.0 mph 18.0 mph 69 % 0.00 in 211 W/m2
13:34 61.3 °F 52.2 °F 29.39 in West 11.0 mph 22.0 mph 72 % 0.00 in 128 W/m2
13:39 60.3 °F 51.6 °F 29.40 in West 11.0 mph 22.0 mph 73 % 0.00 in 186 W/m2
13:44 59.7 °F 52.1 °F 29.39 in West 10.0 mph 20.0 mph 76 % 0.00 in 352 W/m2
13:49 59.4 °F 51.8 °F 29.39 in West 9.0 mph 20.0 mph 76 % 0.00 in 299 W/m2
13:54 59.7 °F 52.8 °F 29.39 in West 8.0 mph 13.0 mph 78 % 0.00 in 805 W/m2
13:59 60.6 °F 53.4 °F 29.38 in West 8.0 mph 12.0 mph 77 % 0.00 in 726 W/m2
14:04 61.0 °F 53.0 °F 29.38 in West 8.0 mph 14.0 mph 75 % 0.00 in 216 W/m2
14:09 61.0 °F 52.6 °F 29.38 in West 10.0 mph 18.0 mph 74 % 0.00 in 306 W/m2
14:14 61.5 °F 53.5 °F 29.38 in West 12.0 mph 22.0 mph 75 % 0.00 in 777 W/m2
14:19 62.4 °F 54.0 °F 29.38 in West 12.0 mph 22.0 mph 74 % 0.00 in 735 W/m2
14:24 63.0 °F 52.6 °F 29.37 in West 12.0 mph 25.0 mph 69 % 0.00 in 722 W/m2
14:29 63.1 °F 51.2 °F 29.38 in West 15.0 mph 25.0 mph 65 % 0.00 in 719 W/m2
14:34 63.3 °F 51.8 °F 29.37 in West 14.0 mph 24.0 mph 66 % 0.00 in 673 W/m2
14:39 63.3 °F 51.3 °F 29.37 in West 12.0 mph 20.0 mph 65 % 0.00 in 691 W/m2
14:44 63.3 °F 51.3 °F 29.37 in West 11.0 mph 19.0 mph 65 % 0.00 in 675 W/m2
14:49 63.9 °F 51.4 °F 29.38 in West 12.0 mph 21.0 mph 64 % 0.00 in 782 W/m2
14:54 64.2 °F 52.2 °F 29.37 in West 12.0 mph 21.0 mph 65 % 0.00 in 749 W/m2
14:59 64.2 °F 53.0 °F 29.37 in WSW 9.0 mph 18.0 mph 67 % 0.00 in 668 W/m2
15:04 64.9 °F 52.9 °F 29.37 in West 9.0 mph 19.0 mph 65 % 0.00 in 647 W/m2
15:09 64.9 °F 51.6 °F 29.37 in West 11.0 mph 20.0 mph 62 % 0.00 in 608 W/m2
15:14 64.6 °F 50.8 °F 29.37 in West 12.0 mph 23.0 mph 61 % 0.00 in 608 W/m2
15:19 64.4 °F 50.2 °F 29.36 in West 13.0 mph 23.0 mph 60 % 0.00 in 649 W/m2
15:24 64.2 °F 50.5 °F 29.36 in WSW 13.0 mph 22.0 mph 61 % 0.00 in 705 W/m2
15:29 64.6 °F 51.3 °F 29.36 in WSW 12.0 mph 20.0 mph 62 % 0.00 in 649 W/m2
15:34 64.6 °F 51.3 °F 29.36 in West 12.0 mph 19.0 mph 62 % 0.00 in 629 W/m2
15:39 64.6 °F 51.7 °F 29.36 in West 11.0 mph 21.0 mph 63 % 0.00 in 179 W/m2
15:45 64.4 °F 51.5 °F 29.36 in WNW 12.0 mph 21.0 mph 63 % 0.00 in 158 W/m2
15:50 63.7 °F 51.3 °F 29.36 in WNW 12.0 mph 21.0 mph 64 % 0.00 in 200 W/m2
15:55 63.3 °F 51.8 °F 29.36 in WNW 11.0 mph 21.0 mph 66 % 0.00 in 670 W/m2
16:00 63.7 °F 51.7 °F 29.36 in West 11.0 mph 21.0 mph 65 % 0.00 in 260 W/m2
16:05 63.5 °F 51.5 °F 29.37 in West 11.0 mph 21.0 mph 65 % 0.00 in 520 W/m2
16:10 63.0 °F 51.4 °F 29.36 in West 10.0 mph 19.0 mph 66 % 0.00 in 192 W/m2
16:15 62.4 °F 50.9 °F 29.36 in West 10.0 mph 16.0 mph 66 % 0.00 in 137 W/m2
16:20 61.9 °F 51.2 °F 29.36 in West 9.0 mph 16.0 mph 68 % 0.00 in 97 W/m2
16:25 61.5 °F 50.5 °F 29.36 in West 9.0 mph 18.0 mph 67 % 0.00 in 123 W/m2
16:30 61.3 °F 50.3 °F 29.36 in WNW 10.0 mph 18.0 mph 67 % 0.00 in 176 W/m2
16:35 61.3 °F 51.1 °F 29.36 in WNW 9.0 mph 16.0 mph 69 % 0.00 in 176 W/m2
16:40 61.2 °F 50.5 °F 29.36 in WNW 9.0 mph 18.0 mph 68 % 0.00 in 162 W/m2
16:45 61.0 °F 50.3 °F 29.36 in West 10.0 mph 18.0 mph 68 % 0.00 in 181 W/m2
16:50 60.8 °F 49.8 °F 29.36 in West 10.0 mph 21.0 mph 67 % 0.00 in 190 W/m2
16:55 60.8 °F 50.2 °F 29.36 in West 10.0 mph 22.0 mph 68 % 0.00 in 199 W/m2
17:00 60.8 °F 49.8 °F 29.36 in West 10.0 mph 22.0 mph 67 % 0.00 in 176 W/m2
17:05 60.8 °F 49.8 °F 29.36 in WNW 11.0 mph 19.0 mph 67 % 0.00 in 142 W/m2
17:10 60.6 °F 49.6 °F 29.36 in West 12.0 mph 23.0 mph 67 % 0.00 in 156 W/m2
17:15 60.4 °F 49.4 °F 29.36 in West 13.0 mph 23.0 mph 67 % 0.00 in 135 W/m2
17:20 60.6 °F 50.0 °F 29.36 in West 10.0 mph 19.0 mph 68 % 0.00 in 104 W/m2
17:25 60.6 °F 50.0 °F 29.36 in WNW 9.0 mph 18.0 mph 68 % 0.00 in 81 W/m2
17:30 60.4 °F 50.2 °F 29.36 in WNW 11.0 mph 23.0 mph 69 % 0.00 in 178 W/m2
17:35 60.4 °F 50.6 °F 29.36 in WNW 11.0 mph 23.0 mph 70 % 0.00 in 146 W/m2
17:40 60.3 °F 50.8 °F 29.36 in WNW 8.0 mph 15.0 mph 71 % 0.00 in 327 W/m2
17:45 60.6 °F 51.5 °F 29.35 in WNW 8.0 mph 14.0 mph 72 % 0.00 in 160 W/m2
17:50 61.0 °F 51.1 °F 29.36 in WNW 9.0 mph 15.0 mph 70 % 0.00 in 255 W/m2
17:55 61.2 °F 50.9 °F 29.36 in West 9.0 mph 16.0 mph 69 % 0.00 in 278 W/m2
18:00 61.3 °F 51.5 °F 29.35 in West 8.0 mph 16.0 mph 70 % 0.00 in 77 W/m2
18:01 61.2 °F 51.3 °F 29.35 in West 8.0 mph 16.0 mph 70 % 0.00 in 77 W/m2
18:06 60.8 °F 50.6 °F 29.36 in WNW 9.0 mph 16.0 mph 69 % 0.00 in 72 W/m2
18:11 60.4 °F 51.0 °F 29.36 in West 10.0 mph 16.0 mph 71 % 0.00 in 118 W/m2
18:16 60.4 °F 51.4 °F 29.36 in West 8.0 mph 16.0 mph 72 % 0.00 in 90 W/m2
18:21 60.3 °F 51.2 °F 29.36 in West 5.0 mph 12.0 mph 72 % 0.00 in 69 W/m2
18:26 60.1 °F 51.0 °F 29.36 in WNW 5.0 mph 9.0 mph 72 % 0.00 in 58 W/m2
18:31 59.9 °F 50.8 °F 29.36 in West 6.0 mph 13.0 mph 72 % 0.00 in 51 W/m2
18:36 59.7 °F 50.7 °F 29.36 in West 7.0 mph 13.0 mph 72 % 0.00 in 105 W/m2
18:41 59.9 °F 51.2 °F 29.35 in West 7.0 mph 12.0 mph 73 % 0.00 in 49 W/m2
18:46 59.7 °F 50.7 °F 29.35 in West 6.0 mph 11.0 mph 72 % 0.00 in 28 W/m2
18:51 59.4 °F 50.3 °F 29.35 in West 7.0 mph 11.0 mph 72 % 0.00 in 28 W/m2
18:56 59.0 °F 50.4 °F 29.35 in West 6.0 mph 10.0 mph 73 % 0.00 in 30 W/m2
19:01 58.6 °F 50.4 °F 29.35 in West 6.0 mph 11.0 mph 74 % 0.00 in 25 W/m2
19:06 58.5 °F 50.6 °F 29.35 in West 6.0 mph 11.0 mph 75 % 0.00 in 19 W/m2
19:11 58.3 °F 50.4 °F 29.35 in West 4.0 mph 9.0 mph 75 % 0.00 in 16 W/m2
19:16 57.9 °F 50.4 °F 29.35 in West 4.0 mph 10.0 mph 76 % 0.00 in 16 W/m2
19:21 57.7 °F 50.2 °F 29.35 in West 5.0 mph 10.0 mph 76 % 0.00 in 12 W/m2
19:26 57.6 °F 50.4 °F 29.35 in West 5.0 mph 9.0 mph 77 % 0.00 in 5 W/m2
19:31 57.6 °F 50.4 °F 29.34 in WSW 4.0 mph 9.0 mph 77 % 0.00 in 5 W/m2
19:36 57.4 °F 50.2 °F 29.34 in WSW 4.0 mph 8.0 mph 77 % 0.00 in 0 W/m2
19:41 57.4 °F 50.2 °F 29.34 in West 5.0 mph 8.0 mph 77 % 0.00 in 0 W/m2
19:46 57.2 °F 50.1 °F 29.35 in WSW 6.0 mph 12.0 mph 77 % 0.00 in 0 W/m2
19:51 57.0 °F 49.9 °F 29.35 in WSW 6.0 mph 12.0 mph 77 % 0.00 in 0 W/m2
19:57 56.8 °F 50.1 °F 29.35 in WSW 7.0 mph 12.0 mph 78 % 0.00 in 0 W/m2
20:02 56.8 °F 50.1 °F 29.35 in WSW 7.0 mph 12.0 mph 78 % 0.00 in 0 W/m2
20:07 56.5 °F 49.7 °F 29.35 in WSW 6.0 mph 11.0 mph 78 % 0.00 in 0 W/m2
20:12 56.3 °F 49.5 °F 29.35 in WSW 6.0 mph 11.0 mph 78 % 0.00 in 0 W/m2
20:17 56.1 °F 49.7 °F 29.35 in WSW 6.0 mph 10.0 mph 79 % 0.00 in 0 W/m2
20:22 55.9 °F 49.5 °F 29.36 in WSW 7.0 mph 11.0 mph 79 % 0.00 in 0 W/m2
20:27 55.8 °F 49.3 °F 29.36 in WSW 7.0 mph 11.0 mph 79 % 0.00 in 0 W/m2
20:32 55.8 °F 49.3 °F 29.35 in WSW 7.0 mph 12.0 mph 79 % 0.00 in 0 W/m2
20:37 55.8 °F 49.3 °F 29.35 in WSW 7.0 mph 12.0 mph 79 % 0.00 in 0 W/m2
20:42 55.6 °F 49.5 °F 29.35 in West 7.0 mph 12.0 mph 80 % 0.00 in 0 W/m2
20:47 55.6 °F 49.5 °F 29.35 in West 7.0 mph 12.0 mph 80 % 0.00 in 0 W/m2
20:52 55.2 °F 49.5 °F 29.35 in West 6.0 mph 10.0 mph 81 % 0.00 in 0 W/m2
20:57 55.2 °F 49.5 °F 29.35 in West 7.0 mph 12.0 mph 81 % 0.00 in 0 W/m2
21:02 55.0 °F 49.6 °F 29.35 in West 8.0 mph 18.0 mph 82 % 0.00 in 0 W/m2
21:07 55.0 °F 50.0 °F 29.35 in West 9.0 mph 18.0 mph 83 % 0.00 in 0 W/m2
21:12 55.0 °F 50.0 °F 29.35 in West 9.0 mph 16.0 mph 83 % 0.00 in 0 W/m2
21:17 54.9 °F 49.8 °F 29.35 in West 8.0 mph 16.0 mph 83 % 0.00 in 0 W/m2
21:22 54.9 °F 49.8 °F 29.35 in West 7.0 mph 12.0 mph 83 % 0.00 in 0 W/m2
21:27 54.7 °F 49.9 °F 29.35 in West 7.0 mph 10.0 mph 84 % 0.00 in 0 W/m2
21:32 54.5 °F 49.8 °F 29.35 in West 7.0 mph 12.0 mph 84 % 0.00 in 0 W/m2
21:37 54.5 °F 49.8 °F 29.35 in West 7.0 mph 12.0 mph 84 % 0.00 in 0 W/m2
21:42 54.5 °F 50.1 °F 29.35 in West 8.0 mph 12.0 mph 85 % 0.00 in 0 W/m2
21:47 54.7 °F 50.3 °F 29.35 in West 8.0 mph 12.0 mph 85 % 0.00 in 0 W/m2
21:52 54.7 °F 50.3 °F 29.35 in West 8.0 mph 12.0 mph 85 % 0.00 in 0 W/m2
21:57 54.7 °F 50.3 °F 29.36 in West 8.0 mph 13.0 mph 85 % 0.00 in 0 W/m2
22:02 54.7 °F 50.3 °F 29.36 in West 7.0 mph 13.0 mph 85 % 0.00 in 0 W/m2
22:07 54.5 °F 50.4 °F 29.36 in West 6.0 mph 10.0 mph 86 % 0.00 in 0 W/m2
22:12 54.3 °F 50.2 °F 29.35 in West 5.0 mph 9.0 mph 86 % 0.00 in 0 W/m2
22:17 54.3 °F 50.2 °F 29.36 in West 5.0 mph 10.0 mph 86 % 0.00 in 0 W/m2
22:22 54.1 °F 50.0 °F 29.36 in West 5.0 mph 10.0 mph 86 % 0.00 in 0 W/m2
22:27 54.1 °F 50.0 °F 29.36 in West 5.0 mph 9.0 mph 86 % 0.00 in 0 W/m2
22:32 54.0 °F 49.9 °F 29.36 in WSW 5.0 mph 9.0 mph 86 % 0.00 in 0 W/m2
22:37 53.8 °F 49.7 °F 29.36 in West 4.0 mph 7.0 mph 86 % 0.00 in 0 W/m2
22:42 53.8 °F 49.7 °F 29.36 in West 5.0 mph 10.0 mph 86 % 0.00 in 0 W/m2
22:47 53.8 °F 49.4 °F 29.36 in West 6.0 mph 10.0 mph 85 % 0.00 in 0 W/m2
22:52 53.8 °F 49.4 °F 29.36 in West 6.0 mph 10.0 mph 85 % 0.00 in 0 W/m2
22:57 53.6 °F 49.5 °F 29.36 in West 5.0 mph 8.0 mph 86 % 0.00 in 0 W/m2
23:02 53.6 °F 49.2 °F 29.36 in West 3.0 mph 7.0 mph 85 % 0.00 in 0 W/m2
23:07 53.4 °F 49.3 °F 29.36 in West 4.0 mph 8.0 mph 86 % 0.00 in 0 W/m2
23:12 53.4 °F 49.3 °F 29.36 in West 4.0 mph 8.0 mph 86 % 0.00 in 0 W/m2
23:17 53.4 °F 49.3 °F 29.35 in West 4.0 mph 9.0 mph 86 % 0.00 in 0 W/m2
23:22 53.4 °F 49.6 °F 29.36 in West 6.0 mph 9.0 mph 87 % 0.00 in 0 W/m2
23:27 53.4 °F 49.6 °F 29.35 in West 6.0 mph 10.0 mph 87 % 0.00 in 0 W/m2
23:32 53.4 °F 49.6 °F 29.35 in West 5.0 mph 10.0 mph 87 % 0.00 in 0 W/m2
23:37 53.4 °F 49.6 °F 29.35 in West 5.0 mph 9.0 mph 87 % 0.00 in 0 W/m2
23:42 53.4 °F 49.6 °F 29.35 in West 6.0 mph 9.0 mph 87 % 0.00 in 0 W/m2
23:48 53.4 °F 49.6 °F 29.35 in West 6.0 mph 10.0 mph 87 % 0.00 in 0 W/m2
23:53 53.4 °F 49.6 °F 29.35 in West 6.0 mph 10.0 mph 87 % 0.00 in 0 W/m2
23:58 53.2 °F 49.5 °F 29.35 in West 6.0 mph 10.0 mph 87 % 0.00 in 0 W/m2
Delerius-Weather
Compliments of Weather Underground - 2.25 mb

Data updates at regular intervals.